Miscellaneous Local Product
Issued by NWS Hastings, NE

Home | Current Version | Previous Version | Text Only | Print | Product List | Glossary Off
Versions: 1 2 3 4 5 6 7 8 9 10 11 12 13 14 15 16 17 18 19 20 21 22 23 24 25 26 27 28 29 30 31 32 33 34 35 36 37 38 39 40 41 42 43 44 45 46 47 48 49 50

736
AXUS43 KGID 220202
MISGRI

GID CWA HOURLY WEATHER ROUNDUP
NATIONAL WEATHER SERVICE HASTINGS NE
800 PM CST WED FEB 21 2018

NOTE: "FAIR" INDICATES FEW OR NO CLOUDS BELOW 12,000 FEET WITH NO
SIGNIFICANT WEATHER AND/OR OBSTRUCTIONS TO VISIBILITY.

...SOUTH CENTRAL NEBRASKA...

CITY           SKY/WX    TMP DP  RH WIND       PRES   REMARKS
GRAND ISLAND   CLOUDY    25  11  55 E8        30.47S WCI  16
KEARNEY        CLOUDY    25   9  50 E10       30.44S WCI  15
HASTINGS       CLOUDY    25   5  42 E9        30.45S WCI  15
ORD            CLOUDY    21  10  62 SE6       30.44F WCI  13
YORK           CLOUDY    23  12  63 E9        30.48F WCI  13
AURORA         CLOUDY    24  10  55 E10       30.46F WCI  13
LEXINGTON      CLOUDY    28   9  44 SE9       30.41R WCI  19
HOLDREGE       CLOUDY    26   8  46 E8        30.40F WCI  17
HEBRON         CLOUDY    26  13  57 E12       30.48F WCI  16

...NEBRASKA PANHANDLE...

CITY           SKY/WX    TMP DP  RH WIND       PRES   REMARKS
CHADRON        FAIR       0  -5  79 CALM      30.24S
ALLIANCE       FAIR      15   9  76 S16       30.21R WCI  -1
SCOTTSBLUFF    FAIR      18  10  71 E13       30.21R WCI   5
SIDNEY         FAIR      13   7  77 SE8       30.22R WCI   2

...WESTERN AND NORTH CENTRAL NEBRASKA...

CITY           SKY/WX    TMP DP  RH WIND       PRES   REMARKS
VALENTINE      FAIR      14   6  70 S12       30.35S WCI   0
AINSWORTH      FAIR      16   8  72 S8        30.38S WCI   5
ONEILL         CLOUDY    19  12  74 SE7       30.47R WCI  10
BROKEN BOW     CLOUDY    24  11  57 SE8       30.40S WCI  15
IMPERIAL       FAIR      15   7  70 SE7       30.31R WCI   5
NORTH PLATTE   MOCLDY    19  10  68 E7        30.37R WCI  10
MCCOOK         CLOUDY    27   8  44 E12       30.36F WCI  17

...EASTERN NEBRASKA...

CITY           SKY/WX    TMP DP  RH WIND       PRES   REMARKS
NORFOLK        MOCLDY    20  13  74 SE6       30.49S WCI  12
SO SIOUX CITY  CLOUDY    18  10  71 NE5       30.57F WCI  11
TEKAMAH        FAIR      24  16  71 E9        30.56F WCI  14
COLUMBUS       CLOUDY    22  14  71 E7        30.53S WCI  13
ALBION         CLOUDY    20  12  71 SE5       30.50S WCI  14
OMAHA EPPLEY   CLOUDY    24  15  68 NE7       30.57R WCI  16
OFFUTT AFB     CLOUDY    25  15  66 E8        30.54F WCI  16
MILLARD        CLOUDY    26  16  64 E7        30.55S WCI  19
LINCOLN        CLOUDY    25  13  60 E12       30.53F WCI  14
NEBRASKA CITY  CLOUDY    26  21  83 NE12      30.51F WCI  15
BEATRICE       CLOUDY    26  16  65 NE12      30.50S WCI  16
FALLS CITY     CLOUDY    28  20  71 E10       30.52S WCI  19

...NORTHERN KANSAS...

CITY           SKY/WX    TMP DP  RH WIND       PRES   REMARKS
GOODLAND       CLOUDY    23   8  52 SE12      30.27R WCI  12
HILL CITY      CLOUDY    27   2  34 E9        30.39F WCI  18
NORTON         CLOUDY    28   0  29 E7        30.38S WCI  21
PHILLIPSBURG   MOCLDY    28   1  31 NE8       30.42F WCI  20
SMITH CENTER   MOCLDY    27   3  36 E8        30.44F WCI  18
BELOIT         CLOUDY    27   9  46 NE8       30.46S WCI  18
HAYS           CLOUDY    26   4  38 E12       30.40R WCI  16
RUSSELL        CLOUDY    28   7  41 NE9       30.40S WCI  19
CONCORDIA      CLOUDY    26  13  57 E10       30.45F WCI  16
SALINA         CLOUDY    28  15  58 NE12      30.45F WCI  18
TOPEKA         CLOUDY    28  23  81 NE10      30.49F WCI  19



USA.gov is the U.S. government's official web portal to all federal, state and local government web resources and services.